Regional Weather Roundup
Issued by NWS Newport/Morehead, NC

Current Version | Previous Version | Text Only | Print | Product List | Glossary On
Versions: 1 2 3 4 5 6 7 8 9 10 11 12 13 14 15 16 17 18 19 20 21 22 23 24 25 26 27 28 29 30 31 32 33 34 35 36 37 38 39 40 41 42 43 44 45 46 47 48 49 50
000 ASUS42 KMHX 180425 RWRMHX WEATHER ROUNDUP FOR EASTERN NORTH CAROLINA NATIONAL WEATHER SERVICE NEWPORT/MOREHEAD CITY NC 1100 PM EST TUE JAN 17 2017 NOTE: "FAIR" INDICATES FEW OR NO CLOUDS BELOW 12,000 FEET WITH NO SIGNIFICANT WEATHER AND/OR OBSTRUCTIONS TO VISIBILITY NCZ015>017-031-032-045>047-102-103-180500- NORTH COAST CITY SKY/WX TMP DP RH WIND PRES REMARKS EDENTON CLOUDY 60 56 84 CALM 30.04S ELIZABETH CITY CLOUDY 57 55 93 S9 30.03F KITTY HAWK NOT AVBL MANTEO CLOUDY 55 55 100 S9 30.05F $$ NCZ045>047-081-094-103-104-180500- CENTRAL COAST CITY SKY/WX TMP DP RH WIND PRES REMARKS FRISCO CLOUDY 62 59 90 SW8 30.09F FOG $$ NCZ095-097-098-100-101-180500- SOUTHERN COAST CITY SKY/WX TMP DP RH WIND PRES REMARKS BEAUFORT CLEAR 60 58 92 SW8 30.11F CEDAR ISLAND NOT AVBL JACKSONVILLE CLEAR 61 58 90 S7 30.09F PINEY ISLAND CLEAR N/A N/A N/A SW10 30.10F WILMINGTON PTCLDY 61 59 93 SW10 30.11F $$ NCZ011>013-027>030-043-044-078>080-089-090>093-098-180500- COASTAL PLAIN CITY SKY/WX TMP DP RH WIND PRES REMARKS AHOSKIE CLOUDY 57 55 92 SW3 30.02S CLINTON CLOUDY 61 58 91 S5 30.09R ELIZABETHTOWN CLOUDY 60 58 94 S5 30.10S GOLDSBORO CLOUDY 62 61 97 SW8 30.04F GREENVILLE CLOUDY 61 57 88 SW8 30.07S HAVELOCK PTCLDY 60 56 86 SW8 30.11F KENANSVILLE PTCLDY 59 57 94 SW3 30.08S KINSTON MOCLDY 62 56 82 SW10G17 30.07F NEW BERN MOCLDY 60 55 83 SW10 30.10F RICHLANDS PTCLDY 59 57 93 S14 30.08F ROCKY MOUNT CLOUDY 60 57 89 S10 30.03F WASHINGTON CLOUDY 61 56 85 SW8 30.05F WHITEVILLE MOCLDY 58 57 95 S6 30.11F $$ AMZ130-135-150-152-154-156-158-170-250-252-270-ANZ085-086-088-633-658-670-180500- MARINE OBSERVATIONS STATION/POSITION TIME TEMP WIND PRES WAVE SWELL AIR SEA DIR/SP/G HT/PER HT/PER (UTC) (F) (DEG/KT/KT) (MB) (FT/S) (FT/S) CHESAPEAKE LIGHT NOT AVBL 64 E VA BEACH 0350 59 57 220/ 19/ 21 1016.2 4/ 4 2/ 9 DUCK 0400 56 44 200/ 11/ 14 1016.5 2 E DUCK 0400 45 N/A 2/10 OREGON INLET 0400 54 50 190/ 17/ 19 1017.4 13E OREGON INLT NOT AVBL HATTERAS CG 0400 61 54 220/ 7/ 10 1018.5 DIAMOND BUOY 0350 71 73 240/ 19/ 21 1019.0 4/ 5 2/ 8 CAPE LOOKOUT 0400 64 220/ 11/ 14 1019.3 BEAUFORT LAB 0400 60 50 220/ 5/ 9 1018.6 30 SE NEW RVR IN 0408 62 62 230/ 10/ 14 1020.0 30 SE NEW RVR IN 0413 62 N/A 3/ 9 27 SE WRIGHTSVLE 0408 67 69 220/ 14/ 19 1019.8 5 SE WRIGHTSVLE 0408 59 210/ 12/ 19 1019.6 225 S CAPE HAT 0350 72 72 210/ 12/ 14 1023.3 3/10 2/10 41 SE CHARLESTON 0350 70 70 220/ 16/ 17 1021.5 3/ 8 2/ 8 $$

USA.gov is the U.S. government's official web portal to all federal, state and local government web resources and services.